Terminal Aerodrome Forecast
Issued by NWS Des Moines, IA

Home | Current Version | Previous Version | Text Only | Print | Product List | Glossary On
Versions: 1 2 3 4 5 6 7 8 9 10 11 12 13 14 15 16 17 18 19 20 21 22 23 24 25 26 27 28 29 30 31 32 33 34 35 36 37 38 39 40 41 42 43 44 45
503
FTUS43 KDMX 102335
TAFALO
TAF
KALO 102335Z 1100/1124 01005KT P6SM SCT040 BKN100
     FM111500 VRB04KT P6SM FEW040 SCT150
     FM112000 19006KT P6SM SCT035 BKN120=

USA.gov is the U.S. government's official web portal to all federal, state and local government web resources and services.